Hourly Weather Russkiy Oshnyak

Today, 13 April, Tuesday

Time Temperature Precipitation Wind Pressure Humidity
00:00 +4°C° 0 mm 3 mps 772 mmHg 92%
01:00 +4°C° 0 mm 3 mps 772 mmHg 94%
02:00 +4°C° 0 mm 3 mps 772 mmHg 95%
03:00 +4°C° 0 mm 3 mps 772 mmHg 97%
04:00 +5°C° 0 mm 2 mps 772 mmHg 97%
05:00 +6°C° 0 mm 2 mps 772 mmHg 97%
06:00 +6°C° 0 mm 2 mps 772 mmHg 98%
07:00 +7°C° 0 mm 2 mps 772 mmHg 92%
08:00 +9°C° 0 mm 2 mps 771 mmHg 87%
09:00 +10°C° 0 mm 3 mps 771 mmHg 82%
10:00 +11°C° 0 mm 3 mps 771 mmHg 78%
11:00 +14°C° 0 mm 2 mps 771 mmHg 73%
12:00 +15°C° 0 mm 2 mps 770 mmHg 68%
13:00 +16°C° 0 mm 2 mps 770 mmHg 66%
14:00 +16°C° 0 mm 2 mps 770 mmHg 64%
15:00 +17°C° 0 mm 2 mps 770 mmHg 62%
16:00 +16°C° 0 mm 2 mps 769 mmHg 66%
17:00 +15°C° 0 mm 2 mps 769 mmHg 70%
18:00 +14°C° 0 mm 2 mps 769 mmHg 74%
19:00 +13°C° 0 mm 2 mps 769 mmHg 78%
20:00 +13°C° 0 mm 2 mps 769 mmHg 81%
21:00 +12°C° 0 mm 2 mps 768 mmHg 84%
22:00 +10°C° 0 mm 2 mps 768 mmHg 85%
23:00 +10°C° 0 mm 2 mps 768 mmHg 87%

Tomorrow, 14 April, Wednesday

Time Temperature Precipitation Wind Pressure Humidity
00:00 +9°C° 0 mm 2 mps 768 mmHg 88%
01:00 +9°C° 0 mm 2 mps 768 mmHg 87%
02:00 +8°C° 0 mm 2 mps 768 mmHg 87%
03:00 +8°C° 0 mm 2 mps 768 mmHg 86%
04:00 +8°C° 0 mm 2 mps 768 mmHg 85%
05:00 +8°C° 0 mm 2 mps 768 mmHg 84%
06:00 +7°C° 0 mm 2 mps 768 mmHg 84%
07:00 +9°C° 0 mm 2 mps 767 mmHg 77%
08:00 +10°C° 0 mm 2 mps 767 mmHg 70%
09:00 +12°C° 0 mm 3 mps 767 mmHg 63%
10:00 +13°C° 0 mm 3 mps 767 mmHg 61%
11:00 +14°C° 0 mm 3 mps 766 mmHg 60%
12:00 +16°C° 0 mm 3 mps 766 mmHg 58%
13:00 +17°C° 0 mm 3 mps 766 mmHg 58%
14:00 +17°C° 0 mm 3 mps 765 mmHg 57%
15:00 +17°C° 0 mm 3 mps 765 mmHg 57%
16:00 +16°C° 0 mm 3 mps 764 mmHg 61%
17:00 +14°C° 0 mm 3 mps 764 mmHg 65%
18:00 +15°C° 0 mm 2 mps 763 mmHg 70%
19:00 +14°C° 0 mm 2 mps 763 mmHg 72%
20:00 +12°C° 0 mm 3 mps 763 mmHg 74%
21:00 +11°C° 0 mm 3 mps 763 mmHg 76%
22:00 +10°C° 0 mm 2 mps 763 mmHg 78%
23:00 +10°C° 0 mm 2 mps 763 mmHg 80%

Day after tomorrow, 15 April, Thursday

Time Temperature Precipitation Wind Pressure Humidity
00:00 +9°C° 0 mm 2 mps 762 mmHg 82%
01:00 +9°C° 0 mm 2 mps 762 mmHg 84%
02:00 +8°C° 0 mm 2 mps 762 mmHg 86%
03:00 +8°C° 0 mm 2 mps 762 mmHg 88%
04:00 +8°C° 0 mm 2 mps 762 mmHg 88%
05:00 +8°C° 0 mm 2 mps 762 mmHg 88%
06:00 +8°C° 0 mm 2 mps 761 mmHg 88%
07:00 +9°C° 0 mm 2 mps 761 mmHg 82%
08:00 +12°C° 0 mm 2 mps 761 mmHg 76%
09:00 +13°C° 0 mm 2 mps 761 mmHg 70%
10:00 +14°C° 0 mm 2 mps 761 mmHg 65%
11:00 +15°C° 0 mm 2 mps 760 mmHg 60%
12:00 +16°C° 0 mm 2 mps 760 mmHg 55%
13:00 +17°C° 0 mm 2 mps 760 mmHg 52%
14:00 +17°C° 0 mm 2 mps 759 mmHg 49%
15:00 +17°C° 0 mm 2 mps 759 mmHg 45%
16:00 +18°C° 0 mm 1 mps 759 mmHg 49%
17:00 +16°C° 0 mm 1 mps 758 mmHg 53%
18:00 +14°C° 0 mm 0 mps 758 mmHg 57%
19:00 +13°C° 0 mm 0 mps 758 mmHg 59%
20:00 +12°C° 0 mm 0 mps 758 mmHg 61%
21:00 +11°C° 0 mm 0 mps 758 mmHg 63%
22:00 +11°C° 0 mm 0 mps 758 mmHg 64%
23:00 +10°C° 0 mm 0 mps 758 mmHg 66%

16 April, Friday

Time Temperature Precipitation Wind Pressure Humidity
00:00 +10°C° 0 mm 0 mps 757 mmHg 67%
01:00 +10°C° 0 mm 0 mps 757 mmHg 69%
02:00 +10°C° 0 mm 1 mps 757 mmHg 70%
03:00 +10°C° 0 mm 1 mps 757 mmHg 72%
04:00 +10°C° 0 mm 1 mps 757 mmHg 73%
05:00 +9°C° 0 mm 2 mps 757 mmHg 75%
06:00 +9°C° 0 mm 2 mps 757 mmHg 77%
07:00 +10°C° 0 mm 3 mps 757 mmHg 76%
08:00 +11°C° 0 mm 4 mps 757 mmHg 75%
09:00 +12°C° 0 mm 4 mps 757 mmHg 74%
10:00 +12°C° 0 mm 4 mps 758 mmHg 73%
11:00 +13°C° 0 mm 5 mps 758 mmHg 72%
12:00 +13°C° 0 mm 5 mps 758 mmHg 71%
13:00 +12°C° 0 mm 5 mps 758 mmHg 71%
14:00 +11°C° 0 mm 6 mps 758 mmHg 71%
15:00 +10°C° 0 mm 6 mps 759 mmHg 71%
16:00 +10°C° 0 mm 6 mps 759 mmHg 72%
17:00 +9°C° 0 mm 5 mps 759 mmHg 73%
18:00 +8°C° 0 mm 5 mps 759 mmHg 73%
19:00 +8°C° 0 mm 5 mps 760 mmHg 74%
20:00 +7°C° 0 mm 5 mps 760 mmHg 75%
21:00 +7°C° 0 mm 5 mps 760 mmHg 76%
22:00 +6°C° 0 mm 4 mps 760 mmHg 76%
23:00 +5°C° 0 mm 4 mps 760 mmHg 77%

17 April, Saturday

Time Temperature Precipitation Wind Pressure Humidity
00:00 +5°C° 0 mm 3 mps 761 mmHg 77%
01:00 +4°C° 0 mm 3 mps 761 mmHg 79%
02:00 +3°C° 0 mm 3 mps 761 mmHg 81%
03:00 +2°C° 0 mm 3 mps 761 mmHg 83%
04:00 +2°C° 0 mm 3 mps 761 mmHg 79%
05:00 +2°C° 0 mm 3 mps 762 mmHg 75%
06:00 +2°C° 0 mm 3 mps 762 mmHg 71%
07:00 +3°C° 0 mm 4 mps 762 mmHg 63%
08:00 +5°C° 0 mm 5 mps 762 mmHg 56%
09:00 +5°C° 0 mm 6 mps 762 mmHg 48%
10:00 +5°C° 0 mm 7 mps 763 mmHg 46%
11:00 +6°C° 0 mm 7 mps 763 mmHg 43%
12:00 +6°C° 0 mm 8 mps 763 mmHg 41%
13:00 +6°C° 0 mm 8 mps 763 mmHg 39%
14:00 +5°C° 0 mm 8 mps 764 mmHg 36%
15:00 +5°C° 0 mm 8 mps 764 mmHg 34%
16:00 +5°C° 0 mm 7 mps 764 mmHg 34%
17:00 +4°C° 0 mm 6 mps 765 mmHg 35%
18:00 +3°C° 0 mm 6 mps 765 mmHg 36%
19:00 +2°C° 0 mm 5 mps 765 mmHg 38%
20:00 +1°C° 0 mm 5 mps 766 mmHg 40%
21:00 0°C° 0 mm 4 mps 766 mmHg 43%
22:00 0°C° 0 mm 3 mps 767 mmHg 46%
23:00 -1°C° 0 mm 3 mps 767 mmHg 50%

18 April, Sunday

Time Temperature Precipitation Wind Pressure Humidity
00:00 -1°C° 0 mm 2 mps 767 mmHg 53%
01:00 -2°C° 0 mm 2 mps 767 mmHg 53%
02:00 -2°C° 0 mm 2 mps 768 mmHg 53%
03:00 -2°C° 0 mm 2 mps 768 mmHg 53%
04:00 -2°C° 0 mm 2 mps 768 mmHg 51%
05:00 -1°C° 0 mm 2 mps 768 mmHg 48%
06:00 -1°C° 0 mm 2 mps 768 mmHg 46%
07:00 +1°C° 0 mm 3 mps 768 mmHg 42%
08:00 +2°C° 0 mm 3 mps 768 mmHg 38%
09:00 +4°C° 0 mm 4 mps 768 mmHg 34%
10:00 +5°C° 0 mm 5 mps 767 mmHg 36%
11:00 +5°C° 0 mm 6 mps 766 mmHg 38%
12:00 +7°C° 0 mm 6 mps 766 mmHg 40%
13:00 +7°C° 0 mm 6 mps 765 mmHg 41%
14:00 +8°C° 0 mm 7 mps 765 mmHg 42%
15:00 +9°C° 0 mm 7 mps 764 mmHg 44%
16:00 +8°C° 0 mm 6 mps 764 mmHg 47%
17:00 +8°C° 0 mm 6 mps 764 mmHg 50%
18:00 +8°C° 0 mm 5 mps 764 mmHg 53%
19:00 +7°C° 0 mm 5 mps 764 mmHg 57%
20:00 +6°C° 0 mm 5 mps 764 mmHg 61%
21:00 +6°C° 0 mm 4 mps 764 mmHg 65%
22:00 +5°C° 0 mm 4 mps 764 mmHg 69%
23:00 +4°C° 0 mm 3 mps 764 mmHg 73%
Show more